ISS DEB (44306 NORAD) Tracking and Keplerian Element Data

This shows tracking and keplerian element data for the satellite.

Feedback or suggestion? Click here.




ElementValue
Catalog44306
NameISS DEB
Epoch Orbit6229
Epoch Day185.6918775
Epoch Year2020
RAAN258.1357
Inclination51.6398
Eccentricity0.0006906
Argument of Perigee27.8788
Mean Anonmoly332.2571
Mean Motion15.54479644
Decay Rate2.305E-05
L11 44306U 98067QD 20185.69187750 .00002305 00000-0 41579-4 0 9996
L22 44306 51.6398 258.1357 0006906 27.8788 332.2571 15.54479644 62294

Live tracking and technical data element details for ISS DEB (NORAD 44306). ISS DEB can be tracked NOW for your location showing map with azimuth and elevation plus other details from your city location.

Track the satellite on the map from your city or location and see movement details for azimuth, elevation, latitude, longitude, range, height, and movement on the map or in text.







IsCatalogInMostPopularTable: catalog: 44306, numindb: 723
Update: records affected: 1



GetName: 44306 ISS DEB

Hit Count: updated at: Sun, 05 Jul 2020 17:36:53 GMT